Home   Weather   Völkermarkt   Past weeks

Flag for Austria Past Weather in Völkermarkt, Carinthia, Austria — Yesterday and Last 2 Weeks

Now
55 °F

Passing clouds.


Feels Like: N/A
Forecast: 45 / 73 °F
Wind: N/A

Location: Klagenfurt-Flughafen

Current Time: Aug 21, 2017 at 12:54:43 am

Latest Report: Aug 20, 2017 at 11:00 pm


Visibility: 31 mi

Pressure: 30.23 "Hg

Humidity: 78%

Dew Point: 48 °F

Location of VölkermarktLocation

Past Weather in Völkermarkt — Graph

°F

Völkermarkt Temperature Yesterday

Maximum temperature yesterday: 70 °F (at 7:00 pm)
Minimum temperature yesterday: 55 °F (at 7:00 am)
Average temperature yesterday: 61 °F

High & Low Weather Summary for the Past Weeks

 TemperatureHumidityPressure
High87 °F (Aug 9, 6:00 pm)95% (Aug 6, 10:00 pm)30.23 "Hg (Aug 6, 10:00 pm)
Low51 °F (Aug 13, 6:00 am)32% (Aug 11, 5:00 pm)29.80 "Hg (Aug 11, 11:00 am)
Average68 °F72%30.05 "Hg
* Reported Aug 5 11:00 pm — Aug 20 11:00 pm, Völkermarkt. Weather by CustomWeather, © 2017

Note: Actual official high and low records may vary slightly from our data, if they occured in-between our weather recording intervals... More about our weather records

Advertising

Völkermarkt Weather History for the Previous 24 Hours

Scroll right to see more
 ConditionsComfort  
Time TempWeatherWind HumidityBarometerVisibility
11:00 pm
Sun, Aug 20
55 °FPassing clouds.N/A78%30.23 "Hg31 mi
10:00 pm61 °FPassing clouds.N/A57%30.20 "Hg31 mi
9:00 pm61 °FPassing clouds.N/A59%30.17 "Hg31 mi
8:00 pm65 °FPassing clouds.5 mph50%30.14 "Hg31 mi
7:00 pm70 °FScattered clouds.N/A40%30.12 "Hg25 mi
6:00 pm69 °FScattered clouds.5 mph40%30.11 "Hg28 mi
5:00 pm69 °FScattered clouds.5 mph44%30.11 "Hg19 mi
4:00 pm70 °FScattered clouds.5 mph44%30.11 "Hg18 mi
3:00 pm69 °FScattered clouds.N/A54%30.12 "Hg25 mi
2:00 pm67 °FPartly sunny.3 mph60%30.12 "Hg22 mi
1:00 pm67 °FScattered clouds.N/A58%30.12 "Hg19 mi
12:00 pm66 °FScattered clouds.N/A67%30.14 "Hg17 mi
11:00 am61 °FScattered clouds.N/A73%30.16 "Hg18 mi
10:00 am59 °FPartly sunny.N/A84%30.17 "Hg25 mi
9:00 am57 °FLow clouds.N/A90%30.17 "Hg28 mi
8:00 am56 °FLow clouds.N/A89%30.16 "Hg28 mi
7:00 am55 °FOvercast.N/A92%30.16 "Hg31 mi
6:00 am55 °FLight rain. Low clouds.N/A91%30.16 "Hg25 mi
5:00 am55 °FOvercast.N/A91%30.16 "Hg31 mi
4:00 am56 °FLight rain. Low clouds.N/A92%30.17 "Hg31 mi
3:00 am56 °FHeavy rain. Low clouds.N/A92%30.20 "Hg9 mi
2:00 am57 °FHeavy rain. Overcast.N/A92%30.22 "Hg4 mi
1:00 am57 °FHeavy rain. Overcast.N/A94%30.18 "Hg5 mi
12:00 am58 °FHeavy rain. Low clouds.N/A94%30.17 "Hg5 mi
Weather by CustomWeather, © 2017

See weather overviewHow to use our weather pages